Location: Leipzig
(51.3392°N, 12.3528°E)
Time: 00:20:02
(UTC+01:00)

ISS - Pass Details

Date: 10 January 2018
Orbit: 401 x 406 km, 51.6° (Epoch: 17 January)

Event Time Altitude Azimuth Distance (km) Brightness Sun altitude
Exits shadow 06:32:42 29° 260° (W) 769 -2.9 -14.8°
Maximum altitude 06:33:57 47° 204° (SSW) 548 -3.3 -14.6°
Drops below altitude 10° 06:37:08 10° 129° (SE) 1,463 0.1 -14.1°
Sets 06:39:15 0° 123° (ESE) 2,322 1.6 -13.8°
